Home > Weather > Oslo > Past weeks

Flag for Norway Weather for the Past 2 Weeks in Oslo, Norway

Now
33 °F

Chilly.


Feels Like: 29 °F
Forecast: 25 / 30 °F
Wind: 5 mph from Northeast

Location: Oslo-Blindern

Current Time: Feb 11, 2016 at 12:14:41 PM

Latest Report: Feb 11, 2016 at 11:00 AM


Visibility: N/A

Pressure: 29.50 "Hg

Humidity: 57%

Dew point: 20 °F

Location of OsloLocation

Historic Weather in Oslo — Graph

°F

Oslo Temperature Yesterday

Maximum temperature yesterday: 38 °F (at 12:00 PM)
Minimum temperature yesterday: 33 °F (at 9:00 PM)
Average temperature yesterday: 36 °F

High & Low Weather Summary for the Past Weeks

 TemperatureHumidityPressure
High43 °F (Jan 29, 5:00 PM)100% (Feb 1, 9:00 PM)29.92 "Hg (Feb 1, 9:00 PM)
Low25 °F (Feb 1, 6:00 AM)39% (Feb 4, 3:00 PM)28.73 "Hg (Feb 9, 5:00 AM)
Average36 °F82%29.26 "Hg
* Reported Jan 27 11:00 AM — Feb 11 11:00 AM, Oslo, Weather by CustomWeather, © 2016

Note: Actual official high and low records may vary slightly from our data, if they occured in-between our weather recording intervals... More about our weather records

Advertising

Oslo Weather History for the Previous 24 Hours

 ConditionsComfort  
Time TempWeatherWind HumidityBarometerVisibility
11:00 AM
Thu, Feb 11
33 °FChilly.5 mph57%29.50 "HgN/A
10:00 AM34 °FOvercast.3 mph57%29.47 "Hg47 mi
9:00 AM33 °FChilly.5 mph60%29.44 "HgN/A
8:00 AM33 °FChilly.8 mph60%29.41 "HgN/A
7:00 AM33 °FChilly.6 mph61%29.41 "HgN/A
5:00 AM34 °FChilly.6 mph60%29.35 "HgN/A
4:00 AM34 °FOvercast.6 mph61%29.35 "Hg47 mi
2:00 AM35 °FChilly.5 mph66%29.32 "HgN/A
1:00 AM35 °FChilly.5 mph69%29.29 "HgN/A
11:00 PM
Wed, Feb 10
34 °FChilly.2 mph76%29.23 "HgN/A
9:00 PM33 °FChilly.1 mph78%29.21 "HgN/A
8:00 PM34 °FChilly.1 mph76%29.21 "HgN/A
7:00 PM34 °FOvercast.5 mph75%29.18 "Hg47 mi
6:00 PM35 °FChilly.3 mph76%29.18 "HgN/A
5:00 PM36 °FChilly.2 mph79%29.15 "HgN/A
4:00 PM36 °FPartly sunny.1 mph79%29.15 "Hg47 mi
3:00 PM37 °FChilly.3 mph76%29.12 "HgN/A
2:00 PM37 °FChilly.3 mph79%29.09 "HgN/A
1:00 PM38 °FOvercast.3 mph82%29.09 "Hg47 mi
12:00 PM38 °FChilly.3 mph85%29.06 "HgN/A
Weather by CustomWeather, © 2016

See weather overviewHow to use our weather pages